Zermatt, Switzerland 16 day weather forecast

Slopes altitude range 1620 m - 3820m

Number of lifts: 34 Pistes: 200km

In some cases the lift and piste totals shown are for the ski domain (e.g. Three Valleys) rather than individual resort (e.g. Courchevel)

Overview

The 16 day weather forecast is fully updated 4 times every day.

    • Sun 23 SEP 2018
    • Sun 23
    • 8C 16C
    • Mon 24 SEP 2018
    • Mon 24
    • 5C 11C
    • Tue 25 SEP 2018
    • Tue 25
    • 2C 7C
    • Wed 26 SEP 2018
    • Wed 26
    • 1C 10C
    • Thu 27 SEP 2018
    • Thu 27
    • 6C 14C
    • Fri 28 SEP 2018
    • Fri 28
    • 6C 14C
    • Sat 29 SEP 2018
    • Sat 29
    • 4C 9C
    • Sun 30 SEP 2018
    • Sun 30
    • 1C 4C
    • Mon 01 OCT 2018
    • Mon 01
    • -1C 3C
    • Tue 02 OCT 2018
    • Tue 02
    • -5C -2C
    • Wed 03 OCT 2018
    • Wed 03
    • 0C 6C
    • Thu 04 OCT 2018
    • Thu 04
    • 1C 10C
    • Fri 05 OCT 2018
    • Fri 05
    • 4C 9C
    • Sat 06 OCT 2018
    • Sat 06
    • 1C 10C
    • Sun 07 OCT 2018
    • Sun 07
    • 4C 13C
    • Mon 08 OCT 2018
    • Mon 08
    • 5C 14C

Date:

Time Type 0°C level Temp Chill Snow Cloud Speed Gust Dir Press
3:00 4270m 8°C 8_7 0cm 53% 7mph 8mph 1021mB
6:00 4380m 7°C 7_8 0cm 27% 8mph 8mph 1021mB
9:00 4418m 8°C 8_2 0cm 8% 2mph 4mph 1021mB
12:00 4368m 16°C 16_3 0cm 9% 3mph 4mph 1019mB
15:00 4237m 16°C 16_4 0cm 42% 4mph 5mph 1017mB
18:00 4109m 16°C 16_6 0cm 41% 6mph 6mph 1017mB
21:00 3964m 10°C 10_8 0cm 80% 8mph 8mph 1018mB
0:00 3832m 9°C 9_10 0cm 77% 10mph 11mph 1019mB
3:00 3576m 7°C 7_11 0cm 75% 11mph 13mph 1020mB
6:00 3819m 5°C 5_12 0cm 62% 12mph 15mph 1022mB
9:00 4083m 5°C 5_11 0cm 21% 11mph 13mph 1023mB
12:00 4012m 11°C 11_5 0cm 34% 5mph 5mph 1023mB
15:00 3386m 11°C 11_4 0cm 95% 4mph 3mph 1024mB
18:00 3000m 11°C 11_1 0cm 56% 1mph 2mph 1027mB
21:00 3016m 3°C 3_5 0cm 75% 5mph 5mph 1030mB
0:00 2917m 3°C 3_6 0cm 86% 6mph 7mph 1031mB
3:00 2841m 2°C 2_5 0cm 98% 5mph 5mph 1031mB
6:00 2942m 2°C 2_4 0cm 97% 4mph 4mph 1031mB
9:00 3008m 2°C 2_3 0cm 95% 3mph 3mph 1031mB
12:00 3267m 7°C 7_5 0cm 78% 5mph 3mph 1030mB
15:00 3335m 7°C 7_4 0cm 32% 4mph 3mph 1029mB
18:00 3910m 7°C 7_3 0cm 36% 3mph 3mph 1032mB
21:00 3041m 2°C 2_4 0cm 58% 4mph 5mph 1034mB
0:00 2950m 1°C 1_4 0cm 63% 4mph 5mph 1035mB
3:00 2836m 0°C 0_5 0cm 51% 5mph 5mph 1035mB
6:00 2900m -1°C -1_5 0cm 42% 5mph 6mph 1035mB
9:00 4362m 1°C 1_2 0cm 0% 2mph 2mph 1034mB
12:00 4372m 10°C 10_3 0cm 0% 3mph 2mph 1032mB
15:00 4427m 10°C 10_3 0cm 2% 3mph 1mph 1031mB
18:00 4537m 10°C 10_4 0cm 1% 4mph 5mph 1033mB
21:00 4638m 4°C 4_4 0cm 40% 4mph 5mph 1033mB
0:00 4615m 4°C 4_5 0cm 26% 5mph 6mph 1033mB
3:00 4590m 4°C 4_6 0cm 12% 6mph 7mph 1032mB
6:00 4611m 4°C 4_6 0cm 43% 6mph 6mph 1032mB
9:00 4634m 6°C 6_1 0cm 68% 1mph 1mph 1030mB
12:00 4630m 14°C 14_3 0cm 71% 3mph 2mph 1028mB
15:00 4596m 14°C 14_2 0cm 42% 2mph 1mph 1027mB
18:00 4598m 14°C 14_4 0cm 42% 4mph 5mph 1028mB
21:00 4615m 6°C 6_4 0cm 86% 4mph 5mph 1028mB
0:00 4547m 5°C 5_5 0cm 91% 5mph 5mph 1026mB
3:00 4468m 5°C 5_5 0cm 20% 5mph 6mph 1025mB
6:00 4427m 4°C 4_6 0cm 55% 6mph 7mph 1024mB
9:00 4389m 6°C 6_1 0cm 4% 1mph 2mph 1022mB
12:00 4322m 14°C 14_3 0cm 2% 3mph 2mph 1020mB
15:00 4139m 14°C 14_1 0cm 0% 1mph 2mph 1018mB
18:00 3999m 14°C 14_6 0cm 0% 6mph 6mph 1019mB
21:00 3887m 6°C 6_6 0cm 0% 6mph 7mph 1019mB
0:00 3796m 5°C 5_6 0cm 0% 6mph 7mph 1017mB
3:00 3688m 4°C 4_6 0cm 7% 6mph 6mph 1015mB
6:00 3548m 3°C 3_5 0cm 11% 5mph 6mph 1014mB
9:00 3262m 4°C 4_6 0cm 58% 6mph 6mph 1012mB
12:00 3131m 9°C 9_7 0cm 73% 7mph 8mph 1011mB
15:00 2935m 8°C 8_3 0cm 100% 3mph 5mph 1010mB
18:00 2612m 8°C 8_9 19cm 100% 9mph 12mph 1012mB
21:00 2365m 0°C 0_9 14cm 100% 9mph 11mph 1012mB
0:00 2400m 0°C 0_10 13cm 100% 10mph 12mph 1012mB
3:00 2474m 0°C 0_6 10cm 100% 6mph 7mph 1012mB
6:00 2789m 0°C 0_6 6cm 100% 6mph 6mph 1013mB
9:00 2858m 1°C 1_3 0cm 100% 3mph 3mph 1013mB
12:00 2940m 4°C 4_1 0cm 95% 1mph 1mph 1012mB
15:00 2946m 4°C 4_1 0cm 94% 1mph 2mph 1012mB
18:00 2977m 4°C 4_5 0cm 90% 5mph 5mph 1013mB
21:00 2432m 0°C 0_7 0cm 33% 7mph 7mph 1013mB
0:00 2385m -1°C -1_7 0cm 42% 7mph 7mph 1012mB
3:00 2291m -1°C -1_7 0cm 85% 7mph 7mph 1011mB
6:00 2178m -2°C -2_7 0cm 59% 7mph 7mph 1010mB
9:00 2564m -1°C -1_4 0cm 96% 4mph 5mph 1008mB
12:00 2620m 3°C 3_6 1cm 88% 6mph 7mph 1007mB
15:00 2538m 3°C 3_5 6cm 87% 5mph 6mph 1006mB
18:00 2131m 3°C 3_9 7cm 85% 9mph 10mph 1008mB
21:00 1869m -3°C -3_12 1cm 96% 12mph 15mph 1008mB
0:00 1387m -6°C -6_11 1cm 71% 11mph 12mph 1009mB
3:00 1542m -6°C -6_11 1cm 77% 11mph 13mph 1009mB
6:00 1548m -6°C -6_11 1cm 85% 11mph 13mph 1009mB
9:00 1801m -5°C -5_11 1cm 99% 11mph 14mph 1010mB
12:00 1958m -2°C -2_11 1cm 99% 11mph 15mph 1010mB
15:00 1968m -2°C -2_12 1cm 80% 12mph 15mph 1011mB
18:00 1690m -2°C -2_11 1cm 90% 11mph 15mph 1014mB
Morning 0.0104167mm 0 1899m -2°C -2_12 0cm 62% 12mph 22mph 1018mB
Afternoon 0.0520833mm 0.125 2534m 6°C 6_5 0cm 69% 5mph 6mph 1020mB
Morning 0mm 0 2726m 0°C 0_7 0cm 25% 7mph 7mph 1020mB
Afternoon 0.125mm 0 2988m 10°C 10_7 0cm 57% 7mph 12mph 1021mB
Morning 0.46875mm 1 3185m 4°C 4_11 0cm 89% 11mph 20mph 1021mB
Afternoon 0.0208333mm 0.125 3068m 9°C 9_11 0cm 55% 11mph 18mph 1022mB
Morning 0mm 0 2920m 1°C 1_11 0cm 50% 11mph 17mph 1025mB
Afternoon 0mm 0 3801m 10°C 10_11 0cm 61% 11mph 18mph 1025mB
Morning 0mm 0 3527m 4°C 4_8 0cm 32% 8mph 11mph 1029mB
Afternoon 0mm 0 4100m 13°C 13_9 0cm 4% 9mph 13mph 1029mB
Morning 0mm 0 4032m 5°C 5_7 0cm 0% 7mph 8mph 1029mB
Afternoon 0mm 0 4250m 14°C 14_6 0cm 0% 6mph 7mph 1027mB

16 day outlook at a glance

Forecast issued: 23/09/2018 06:06:58

Chat

Your comments and questions. In a resort? Let us know what it's like!


Characters left 250

For terms and conditions see Readers Comments on the Cookie and privacy policy page.